Location: Roland
(31.1349°N, 85.4372°W)
Time: 13:20:58
(UTC+00:00)

Explorer 11/Cluster Stage 4 - Pass Details

Date: 27 April 2021
Orbit: 467 x 1257 km, 28.8° (Epoch: 15 May)

Event Time Altitude Azimuth Distance (km) Brightness Sun altitude
Exits shadow 08:43:37 17° 115° (ESE) 1,311 8.0 -26.9°
Drops below altitude 10° 08:44:43 10° 103° (ESE) 1,661 8.7 -26.7°
Sets 08:46:59 0° 91° (E) 2,501 9.9 -26.3°
